Tracking 20066 objects as of 6-Dec-2019
HD Live streaming from Space Station
objects crossing your sky now

COSMOS 1529

Track COSMOS 1529 now!
10-day predictions
COSMOS 1529 is classified as:


NORAD ID: 14618
Int'l Code: 1984-001H
Perigee: 1,468.1 km
Apogee: 1,518.6 km
Inclination: 74.0 °
Period: 115.7 minutes
Semi major axis: 7864 km
RCS: 0.6948 m2 (medium)
Launch date: January 5, 1984
Source: Commonwealth of Independent States (former USSR) (CIS)
Launch site: PLESETSK MISSILE AND SPACE COMPLEX (PKMTR)
aabbcc
Your satellite tracking list
Your tracking list is empty




NASA's NSSDC Master Catalog

Two Line Element Set (TLE):
1 14618U 84001H   19339.92862260 -.00000025 +00000-0 -62069-4 0  9999
2 14618 074.0110 050.3118 0032079 211.6118 321.7393 12.44828482458721
Source of the keplerian elements: AFSPC